Time,TemperatureF,DewpointF,PressureIn,WindDirection,WindDirectionDegrees,WindSpeedMPH,WindSpeedGustMPH,Humidity,HourlyPrecipIn,Conditions,Clouds,dailyrainin,SoftwareType,DateUTC
2013-09-09 00:07:00,63.5,56.2,32.87,North,0,0.0,0.0,77,0.00,,,-99.99,pyweather 0.1,2013-09-09 07:07:00,
2013-09-09 00:15:00,63.5,56.2,32.87,North,0,0.0,0.0,77,0.00,,,-99.99,pyweather 0.1,2013-09-09 07:15:00,
2013-09-09 00:23:00,63.3,55.6,32.87,North,0,0.0,0.0,76,0.00,,,-99.99,pyweather 0.1,2013-09-09 07:23:00,
2013-09-09 00:31:00,63.1,55.5,32.87,North,0,0.0,0.0,76,0.00,,,-99.99,pyweather 0.1,2013-09-09 07:31:00,
2013-09-09 00:39:00,63.0,55.7,32.87,North,0,0.0,0.0,77,0.00,,,-99.99,pyweather 0.1,2013-09-09 07:39:00,
2013-09-09 00:47:00,62.8,55.5,32.87,North,0,0.0,0.0,77,0.00,,,-99.99,pyweather 0.1,2013-09-09 07:47:00,
2013-09-09 00:55:00,62.6,55.3,32.87,North,0,0.0,0.0,77,0.00,,,-99.99,pyweather 0.1,2013-09-09 07:55:00,
2013-09-09 01:03:00,62.6,55.3,32.87,North,0,0.0,0.0,77,0.00,,,-99.99,pyweather 0.1,2013-09-09 08:03:00,
2013-09-09 01:11:00,62.4,55.5,32.87,North,0,0.0,0.0,78,0.00,,,-99.99,pyweather 0.1,2013-09-09 08:11:00,
2013-09-09 01:19:00,62.2,55.3,32.84,North,0,0.0,0.0,78,0.00,,,-99.99,pyweather 0.1,2013-09-09 08:19:00,
2013-09-09 01:27:00,62.1,55.1,32.84,North,0,0.0,0.0,78,0.00,,,-99.99,pyweather 0.1,2013-09-09 08:27:00,
2013-09-09 01:35:00,61.9,55.0,32.84,North,0,0.0,0.0,78,0.00,,,-99.99,pyweather 0.1,2013-09-09 08:35:00,
2013-09-09 01:43:00,61.7,55.1,32.84,North,0,0.0,0.0,79,0.00,,,-99.99,pyweather 0.1,2013-09-09 08:43:00,
2013-09-09 01:51:00,61.5,55.0,32.84,North,0,0.0,0.0,79,0.00,,,-99.99,pyweather 0.1,2013-09-09 08:51:00,
2013-09-09 01:59:00,61.3,54.8,32.84,North,0,0.0,0.0,79,0.00,,,-99.99,pyweather 0.1,2013-09-09 08:59:00,
2013-09-09 02:07:00,61.3,54.8,32.84,North,0,0.0,0.0,79,0.00,,,-99.99,pyweather 0.1,2013-09-09 09:07:00,
2013-09-09 02:16:00,61.2,55.0,32.84,North,0,0.0,0.0,80,0.00,,,-99.99,pyweather 0.1,2013-09-09 09:16:00,
2013-09-09 02:24:00,61.0,54.8,32.84,North,0,0.0,0.0,80,0.00,,,-99.99,pyweather 0.1,2013-09-09 09:24:00,
2013-09-09 02:32:00,61.0,54.8,32.84,North,0,0.0,0.0,80,0.00,,,-99.99,pyweather 0.1,2013-09-09 09:32:00,
2013-09-09 02:40:00,61.0,54.8,32.84,North,0,0.0,0.0,80,0.00,,,-99.99,pyweather 0.1,2013-09-09 09:40:00,
2013-09-09 02:48:00,61.0,54.8,32.84,North,0,0.0,0.0,80,0.00,,,-99.99,pyweather 0.1,2013-09-09 09:48:00,
2013-09-09 02:56:00,60.8,54.6,32.84,North,0,0.0,0.0,80,0.00,,,-99.99,pyweather 0.1,2013-09-09 09:56:00,
2013-09-09 03:04:00,60.6,54.8,32.84,North,0,0.0,0.0,81,0.00,,,-99.99,pyweather 0.1,2013-09-09 10:04:00,
2013-09-09 03:12:00,60.4,54.6,32.84,North,0,0.0,0.0,81,0.00,,,-99.99,pyweather 0.1,2013-09-09 10:12:00,
2013-09-09 03:20:00,60.3,54.4,32.84,North,0,0.0,0.0,81,0.00,,,-99.99,pyweather 0.1,2013-09-09 10:20:00,
2013-09-09 03:28:00,60.3,54.4,32.84,North,0,0.0,0.0,81,0.00,,,-99.99,pyweather 0.1,2013-09-09 10:28:00,
2013-09-09 03:36:00,60.1,54.2,32.84,North,0,0.0,0.0,81,0.00,,,-99.99,pyweather 0.1,2013-09-09 10:36:00,
2013-09-09 03:44:00,60.1,54.6,32.84,North,0,0.0,0.0,82,0.00,,,-99.99,pyweather 0.1,2013-09-09 10:44:00,
2013-09-09 03:52:00,60.1,54.6,32.84,North,0,0.0,0.0,82,0.00,,,-99.99,pyweather 0.1,2013-09-09 10:52:00,
2013-09-09 04:00:00,60.1,54.9,32.84,North,0,0.0,0.0,83,0.00,,,-99.99,pyweather 0.1,2013-09-09 11:00:00,
2013-09-09 04:08:00,60.1,54.9,32.84,North,0,0.0,0.0,83,0.00,,,-99.99,pyweather 0.1,2013-09-09 11:08:00,
2013-09-09 04:16:00,59.9,55.1,32.84,North,0,0.0,0.0,84,0.00,,,-99.99,pyweather 0.1,2013-09-09 11:16:00,
2013-09-09 04:24:00,59.9,55.1,32.84,North,0,0.0,0.0,84,0.00,,,-99.99,pyweather 0.1,2013-09-09 11:24:00,
2013-09-09 04:32:00,60.1,55.6,32.84,North,0,0.0,0.0,85,0.00,,,-99.99,pyweather 0.1,2013-09-09 11:32:00,
2013-09-09 04:40:00,59.9,55.4,32.84,North,0,0.0,0.0,85,0.00,,,-99.99,pyweather 0.1,2013-09-09 11:40:00,
2013-09-09 04:48:00,59.7,55.5,32.84,North,0,0.0,0.0,86,0.00,,,-99.99,pyweather 0.1,2013-09-09 11:48:00,
2013-09-09 04:56:00,59.9,56.0,32.84,North,0,0.0,0.0,87,0.00,,,-99.99,pyweather 0.1,2013-09-09 11:56:00,
2013-09-09 05:04:00,59.9,56.0,32.84,North,0,0.0,0.0,87,0.00,,,-99.99,pyweather 0.1,2013-09-09 12:04:00,
2013-09-09 05:12:00,59.9,56.0,32.84,North,0,0.0,0.0,87,0.00,,,-99.99,pyweather 0.1,2013-09-09 12:12:00,
2013-09-09 05:20:00,59.4,55.5,32.84,North,0,0.0,0.0,87,0.00,,,-99.99,pyweather 0.1,2013-09-09 12:20:00,
2013-09-09 05:28:00,59.4,56.1,32.84,North,0,0.0,0.0,89,0.00,,,-99.99,pyweather 0.1,2013-09-09 12:28:00,
2013-09-09 05:36:00,59.4,56.4,32.84,North,0,0.0,0.0,90,0.00,,,-99.99,pyweather 0.1,2013-09-09 12:36:00,
2013-09-09 05:44:00,59.5,56.6,32.84,North,0,0.0,0.0,90,0.00,,,-99.99,pyweather 0.1,2013-09-09 12:44:00,
2013-09-09 05:52:00,59.7,56.8,32.87,North,0,0.0,0.0,90,0.00,,,-99.99,pyweather 0.1,2013-09-09 12:52:00,
2013-09-09 06:00:00,59.7,56.5,32.87,North,0,0.0,0.0,89,0.00,,,-99.99,pyweather 0.1,2013-09-09 13:00:00,
2013-09-09 06:08:00,59.5,56.3,32.84,North,0,0.0,0.0,89,0.00,,,-99.99,pyweather 0.1,2013-09-09 13:08:00,
2013-09-09 06:16:00,59.5,56.3,32.84,North,0,0.0,0.0,89,0.00,,,-99.99,pyweather 0.1,2013-09-09 13:16:00,
2013-09-09 06:24:00,59.5,56.6,32.87,North,0,0.0,0.0,90,0.00,,,-99.99,pyweather 0.1,2013-09-09 13:24:00,
2013-09-09 06:32:00,59.5,56.6,32.87,North,0,0.0,0.0,90,0.00,,,-99.99,pyweather 0.1,2013-09-09 13:32:00,
2013-09-09 06:40:00,59.5,56.6,32.87,North,0,0.0,0.0,90,0.00,,,-99.99,pyweather 0.1,2013-09-09 13:40:00,
2013-09-09 06:48:00,59.5,56.6,32.87,North,0,0.0,0.0,90,0.00,,,-99.99,pyweather 0.1,2013-09-09 13:48:00,
2013-09-09 06:56:00,59.5,56.6,32.87,North,0,0.0,0.0,90,0.00,,,-99.99,pyweather 0.1,2013-09-09 13:56:00,
2013-09-09 07:04:00,59.7,56.8,32.87,North,0,0.0,0.0,90,0.00,,,-99.99,pyweather 0.1,2013-09-09 14:04:00,
2013-09-09 07:12:00,59.7,56.8,32.87,North,0,0.0,0.0,90,0.00,,,-99.99,pyweather 0.1,2013-09-09 14:12:00,
2013-09-09 07:20:00,59.5,56.6,32.87,North,0,0.0,0.0,90,0.00,,,-99.99,pyweather 0.1,2013-09-09 14:20:00,
2013-09-09 07:28:00,59.7,57.1,32.87,North,0,0.0,0.0,91,0.00,,,-99.99,pyweather 0.1,2013-09-09 14:28:00,
2013-09-09 07:36:00,59.7,56.8,32.87,North,0,0.0,0.0,90,0.00,,,-99.99,pyweather 0.1,2013-09-09 14:36:00,
2013-09-09 07:44:00,59.7,56.8,32.87,North,0,0.0,0.0,90,0.00,,,-99.99,pyweather 0.1,2013-09-09 14:44:00,
2013-09-09 07:52:00,59.9,57.3,32.87,North,0,0.0,0.0,91,0.00,,,-99.99,pyweather 0.1,2013-09-09 14:52:00,
2013-09-09 08:00:00,59.9,57.0,32.87,North,0,0.0,0.0,90,0.00,,,-99.99,pyweather 0.1,2013-09-09 15:00:00,
2013-09-09 08:08:00,59.9,57.3,32.87,North,0,0.0,0.0,91,0.00,,,-99.99,pyweather 0.1,2013-09-09 15:08:00,
2013-09-09 08:16:00,60.1,57.1,32.87,North,0,0.0,0.0,90,0.00,,,-99.99,pyweather 0.1,2013-09-09 15:16:00,
2013-09-09 08:24:00,60.1,57.1,32.87,North,0,0.0,0.0,90,0.00,,,-99.99,pyweather 0.1,2013-09-09 15:24:00,
2013-09-09 08:32:00,60.1,57.1,32.87,North,0,0.0,0.0,90,0.00,,,-99.99,pyweather 0.1,2013-09-09 15:32:00,
2013-09-09 08:40:00,60.1,57.1,32.87,North,0,0.0,0.0,90,0.00,,,-99.99,pyweather 0.1,2013-09-09 15:40:00,
2013-09-09 08:48:00,60.3,57.3,32.87,North,0,0.0,0.0,90,0.00,,,-99.99,pyweather 0.1,2013-09-09 15:48:00,
2013-09-09 08:57:00,60.3,57.3,32.87,North,0,0.0,0.0,90,0.00,,,-99.99,pyweather 0.1,2013-09-09 15:57:00,
2013-09-09 09:05:00,60.6,57.7,32.87,North,0,0.0,0.0,90,0.00,,,-99.99,pyweather 0.1,2013-09-09 16:05:00,
2013-09-09 09:13:00,61.0,58.0,32.87,North,0,0.0,0.0,90,0.00,,,-99.99,pyweather 0.1,2013-09-09 16:13:00,
2013-09-09 09:21:00,61.2,57.9,32.87,North,0,0.0,0.0,89,0.00,,,-99.99,pyweather 0.1,2013-09-09 16:21:00,
2013-09-09 09:29:00,61.2,57.9,32.87,North,0,0.0,0.0,89,0.00,,,-99.99,pyweather 0.1,2013-09-09 16:29:00,
2013-09-09 09:37:00,61.0,57.1,32.87,North,0,0.0,0.0,87,0.00,,,-99.99,pyweather 0.1,2013-09-09 16:37:00,
2013-09-09 09:45:00,61.2,57.3,32.87,North,0,0.0,0.0,87,0.00,,,-99.99,pyweather 0.1,2013-09-09 16:45:00,
2013-09-09 09:53:00,61.3,57.4,32.87,North,0,0.0,0.0,87,0.00,,,-99.99,pyweather 0.1,2013-09-09 16:53:00,
2013-09-09 10:01:00,61.3,57.4,32.87,North,0,0.0,0.0,87,0.00,,,-99.99,pyweather 0.1,2013-09-09 17:01:00,
2013-09-09 10:09:00,61.5,57.6,32.87,North,0,0.0,0.0,87,0.00,,,-99.99,pyweather 0.1,2013-09-09 17:09:00,
2013-09-09 10:17:00,61.9,58.0,32.87,North,0,0.0,0.0,87,0.00,,,-99.99,pyweather 0.1,2013-09-09 17:17:00,
2013-09-09 10:25:00,62.1,57.8,32.87,North,0,0.0,0.0,86,0.00,,,-99.99,pyweather 0.1,2013-09-09 17:25:00,
2013-09-09 10:33:00,62.4,58.2,32.87,North,0,0.0,0.0,86,0.00,,,-99.99,pyweather 0.1,2013-09-09 17:33:00,
2013-09-09 10:41:00,62.4,57.5,32.87,North,0,0.0,0.0,84,0.00,,,-99.99,pyweather 0.1,2013-09-09 17:41:00,
2013-09-09 10:49:00,63.0,58.1,32.87,North,0,0.0,0.0,84,0.00,,,-99.99,pyweather 0.1,2013-09-09 17:49:00,
2013-09-09 10:57:00,63.5,58.2,32.87,North,0,0.0,0.0,83,0.00,,,-99.99,pyweather 0.1,2013-09-09 17:57:00,
2013-09-09 11:05:00,64.2,59.0,32.87,North,0,0.0,0.0,83,0.00,,,-99.99,pyweather 0.1,2013-09-09 18:05:00,
2013-09-09 11:13:00,64.8,58.1,32.87,North,0,0.0,0.0,79,0.00,,,-99.99,pyweather 0.1,2013-09-09 18:13:00,
2013-09-09 11:21:00,65.7,59.0,32.87,North,0,0.0,0.0,79,0.00,,,-99.99,pyweather 0.1,2013-09-09 18:21:00,
2013-09-09 11:29:00,67.1,58.2,32.87,North,0,0.0,0.0,73,0.00,,,-99.99,pyweather 0.1,2013-09-09 18:29:00,
2013-09-09 11:37:00,68.4,57.4,32.87,North,0,0.0,0.0,68,0.00,,,-99.99,pyweather 0.1,2013-09-09 18:37:00,
2013-09-09 11:45:00,69.6,56.5,32.87,North,0,0.0,0.0,63,0.00,,,-99.99,pyweather 0.1,2013-09-09 18:45:00,
2013-09-09 11:53:00,71.4,57.3,32.87,North,0,0.0,0.0,61,0.00,,,-99.99,pyweather 0.1,2013-09-09 18:53:00,
2013-09-09 12:02:00,72.7,57.1,32.87,North,0,0.0,0.0,58,0.00,,,-99.99,pyweather 0.1,2013-09-09 19:02:00,
2013-09-09 12:10:00,73.4,56.3,32.87,North,0,0.0,0.0,55,0.00,,,-99.99,pyweather 0.1,2013-09-09 19:10:00,
2013-09-09 12:18:00,73.9,54.7,32.87,North,0,0.0,0.0,51,0.00,,,-99.99,pyweather 0.1,2013-09-09 19:18:00,
2013-09-09 12:26:00,74.8,53.8,32.87,North,0,0.0,0.0,48,0.00,,,-99.99,pyweather 0.1,2013-09-09 19:26:00,
2013-09-09 12:34:00,75.4,54.9,32.87,North,0,0.0,0.0,49,0.00,,,-99.99,pyweather 0.1,2013-09-09 19:34:00,
2013-09-09 12:42:00,75.6,52.8,32.87,North,0,0.0,0.0,45,0.00,,,-99.99,pyweather 0.1,2013-09-09 19:42:00,
2013-09-09 12:50:00,75.4,53.2,32.84,North,0,0.0,0.0,46,0.00,,,-99.99,pyweather 0.1,2013-09-09 19:50:00,
2013-09-09 12:58:00,75.9,53.7,32.84,North,0,0.0,0.0,46,0.00,,,-99.99,pyweather 0.1,2013-09-09 19:58:00,
2013-09-09 13:06:00,76.5,53.6,32.84,North,0,0.0,0.0,45,0.00,,,-99.99,pyweather 0.1,2013-09-09 20:06:00,
2013-09-09 13:14:00,77.2,53.0,32.84,North,0,0.0,0.0,43,0.00,,,-99.99,pyweather 0.1,2013-09-09 20:14:00,
2013-09-09 13:22:00,77.5,53.3,32.84,North,0,0.0,0.0,43,0.00,,,-99.99,pyweather 0.1,2013-09-09 20:22:00,
2013-09-09 13:30:00,78.6,54.3,32.84,North,0,0.0,0.0,43,0.00,,,-99.99,pyweather 0.1,2013-09-09 20:30:00,
2013-09-09 13:38:00,79.5,54.4,32.84,North,0,0.0,0.0,42,0.00,,,-99.99,pyweather 0.1,2013-09-09 20:38:00,
2013-09-09 13:46:00,79.5,53.8,32.84,North,0,0.0,0.0,41,0.00,,,-99.99,pyweather 0.1,2013-09-09 20:46:00,
2013-09-09 13:54:00,80.2,53.8,32.84,North,0,0.0,0.0,40,0.00,,,-99.99,pyweather 0.1,2013-09-09 20:54:00,
2013-09-09 14:02:00,82.0,54.7,32.84,North,0,0.0,0.0,39,0.00,,,-99.99,pyweather 0.1,2013-09-09 21:02:00,
2013-09-09 14:10:00,81.1,53.2,32.84,North,0,0.0,0.0,38,0.00,,,-99.99,pyweather 0.1,2013-09-09 21:10:00,
2013-09-09 14:18:00,81.3,53.3,32.84,North,0,0.0,0.0,38,0.00,,,-99.99,pyweather 0.1,2013-09-09 21:18:00,
2013-09-09 14:26:00,81.0,52.3,32.84,North,0,0.0,0.0,37,0.00,,,-99.99,pyweather 0.1,2013-09-09 21:26:00,
2013-09-09 14:34:00,81.5,53.5,32.84,North,0,0.0,0.0,38,0.00,,,-99.99,pyweather 0.1,2013-09-09 21:34:00,
2013-09-09 14:42:00,81.7,52.9,32.84,North,0,0.0,0.0,37,0.00,,,-99.99,pyweather 0.1,2013-09-09 21:42:00,
2013-09-09 14:50:00,81.9,52.3,32.81,North,0,0.0,0.0,36,0.00,,,-99.99,pyweather 0.1,2013-09-09 21:50:00,
2013-09-09 14:58:00,82.2,53.4,32.81,North,0,0.0,0.0,37,0.00,,,-99.99,pyweather 0.1,2013-09-09 21:58:00,
2013-09-09 15:07:00,82.9,50.9,32.81,North,0,0.0,0.0,33,0.00,,,-99.99,pyweather 0.1,2013-09-09 22:07:00,
2013-09-09 15:15:00,82.9,51.7,32.81,North,0,0.0,0.0,34,0.00,,,-99.99,pyweather 0.1,2013-09-09 22:15:00,
2013-09-09 15:23:00,82.2,50.3,32.81,North,0,0.0,0.0,33,0.00,,,-99.99,pyweather 0.1,2013-09-09 22:23:00,
2013-09-09 15:31:00,81.5,49.7,32.81,North,0,0.0,0.0,33,0.00,,,-99.99,pyweather 0.1,2013-09-09 22:31:00,
2013-09-09 15:39:00,81.1,50.1,32.81,North,0,0.0,0.0,34,0.00,,,-99.99,pyweather 0.1,2013-09-09 22:39:00,
2013-09-09 15:47:00,81.3,50.3,32.81,North,0,0.0,0.0,34,0.00,,,-99.99,pyweather 0.1,2013-09-09 22:47:00,
2013-09-09 15:55:00,81.0,50.0,32.81,North,0,0.0,0.0,34,0.00,,,-99.99,pyweather 0.1,2013-09-09 22:55:00,
2013-09-09 16:03:00,80.2,49.3,32.81,North,0,0.0,0.0,34,0.00,,,-99.99,pyweather 0.1,2013-09-09 23:03:00,
2013-09-09 16:11:00,79.7,49.7,32.81,North,0,0.0,0.0,35,0.00,,,-99.99,pyweather 0.1,2013-09-09 23:11:00,
2013-09-09 16:19:00,79.2,49.2,32.81,North,0,0.0,0.0,35,0.00,,,-99.99,pyweather 0.1,2013-09-09 23:19:00,
2013-09-09 16:27:00,78.1,49.0,32.81,North,0,0.0,0.0,36,0.00,,,-99.99,pyweather 0.1,2013-09-09 23:27:00,
2013-09-09 16:35:00,77.5,49.2,32.81,North,0,0.0,0.0,37,0.00,,,-99.99,pyweather 0.1,2013-09-09 23:35:00,
2013-09-09 16:43:00,77.2,49.6,32.81,North,0,0.0,0.0,38,0.00,,,-99.99,pyweather 0.1,2013-09-09 23:43:00,
2013-09-09 16:51:00,76.8,49.3,32.81,North,0,0.0,0.0,38,0.00,,,-99.99,pyweather 0.1,2013-09-09 23:51:00,
2013-09-09 16:59:00,76.3,50.2,32.81,North,0,0.0,0.0,40,0.00,,,-99.99,pyweather 0.1,2013-09-09 23:59:00,
2013-09-09 17:07:00,76.1,50.7,32.81,North,0,0.0,0.0,41,0.00,,,-99.99,pyweather 0.1,2013-09-10 00:07:00,
2013-09-09 17:15:00,75.9,50.5,32.81,North,0,0.0,0.0,41,0.00,,,-99.99,pyweather 0.1,2013-09-10 00:15:00,
2013-09-09 17:23:00,75.7,50.4,32.81,North,0,0.0,0.0,41,0.00,,,-99.99,pyweather 0.1,2013-09-10 00:23:00,
2013-09-09 17:31:00,75.4,50.1,32.81,North,0,0.0,0.0,41,0.00,,,-99.99,pyweather 0.1,2013-09-10 00:31:00,
2013-09-09 17:39:00,75.2,50.6,32.81,North,0,0.0,0.0,42,0.00,,,-99.99,pyweather 0.1,2013-09-10 00:39:00,
2013-09-09 17:47:00,74.8,50.9,32.81,North,0,0.0,0.0,43,0.00,,,-99.99,pyweather 0.1,2013-09-10 00:47:00,
2013-09-09 17:55:00,74.8,51.5,32.81,North,0,0.0,0.0,44,0.00,,,-99.99,pyweather 0.1,2013-09-10 00:55:00,
2013-09-09 18:03:00,74.7,51.3,32.78,North,0,0.0,0.0,44,0.00,,,-99.99,pyweather 0.1,2013-09-10 01:03:00,
2013-09-09 18:12:00,74.5,51.2,32.78,North,0,0.0,0.0,44,0.00,,,-99.99,pyweather 0.1,2013-09-10 01:12:00,
2013-09-09 18:20:00,74.3,51.6,32.78,North,0,0.0,0.0,45,0.00,,,-99.99,pyweather 0.1,2013-09-10 01:20:00,
2013-09-09 18:28:00,74.1,51.4,32.78,North,0,0.0,0.0,45,0.00,,,-99.99,pyweather 0.1,2013-09-10 01:28:00,
2013-09-09 18:36:00,73.9,51.3,32.78,North,0,0.0,0.0,45,0.00,,,-99.99,pyweather 0.1,2013-09-10 01:36:00,
2013-09-09 18:44:00,73.6,52.1,32.78,North,0,0.0,0.0,47,0.00,,,-99.99,pyweather 0.1,2013-09-10 01:44:00,
2013-09-09 18:52:00,73.0,52.2,32.78,North,0,0.0,0.0,48,0.00,,,-99.99,pyweather 0.1,2013-09-10 01:52:00,
2013-09-09 19:00:00,72.7,51.3,32.78,North,0,0.0,0.0,47,0.00,,,-99.99,pyweather 0.1,2013-09-10 02:00:00,
2013-09-09 19:08:00,72.5,51.7,32.78,North,0,0.0,0.0,48,0.00,,,-99.99,pyweather 0.1,2013-09-10 02:08:00,
2013-09-09 19:16:00,72.0,51.2,32.78,North,0,0.0,0.0,48,0.00,,,-99.99,pyweather 0.1,2013-09-10 02:16:00,
2013-09-09 19:24:00,71.6,51.5,32.78,North,0,0.0,0.0,49,0.00,,,-99.99,pyweather 0.1,2013-09-10 02:24:00,
2013-09-09 19:32:00,71.1,52.0,32.78,North,0,0.0,0.0,51,0.00,,,-99.99,pyweather 0.1,2013-09-10 02:32:00,
2013-09-09 19:40:00,70.3,51.9,32.78,North,0,0.0,0.0,52,0.00,,,-99.99,pyweather 0.1,2013-09-10 02:40:00,
2013-09-09 19:48:00,70.0,51.6,32.78,North,0,0.0,0.0,52,0.00,,,-99.99,pyweather 0.1,2013-09-10 02:48:00,
2013-09-09 19:56:00,69.8,51.4,32.78,North,0,0.0,0.0,52,0.00,,,-99.99,pyweather 0.1,2013-09-10 02:56:00,
2013-09-09 20:04:00,69.3,51.9,32.81,North,0,0.0,0.0,54,0.00,,,-99.99,pyweather 0.1,2013-09-10 03:04:00,
2013-09-09 20:12:00,68.9,52.1,32.81,North,0,0.0,0.0,55,0.00,,,-99.99,pyweather 0.1,2013-09-10 03:12:00,
2013-09-09 20:20:00,68.2,52.4,32.81,North,0,0.0,0.0,57,0.00,,,-99.99,pyweather 0.1,2013-09-10 03:20:00,
2013-09-09 20:28:00,67.8,53.0,32.81,North,0,0.0,0.0,59,0.00,,,-99.99,pyweather 0.1,2013-09-10 03:28:00,
2013-09-09 20:36:00,67.5,53.1,32.81,North,0,0.0,0.0,60,0.00,,,-99.99,pyweather 0.1,2013-09-10 03:36:00,
2013-09-09 20:44:00,66.9,53.0,32.81,North,0,0.0,0.0,61,0.00,,,-99.99,pyweather 0.1,2013-09-10 03:44:00,
2013-09-09 20:52:00,66.6,53.2,32.81,North,0,0.0,0.0,62,0.00,,,-99.99,pyweather 0.1,2013-09-10 03:52:00,
2013-09-09 21:00:00,66.2,53.7,32.81,North,0,0.0,0.0,64,0.00,,,-99.99,pyweather 0.1,2013-09-10 04:00:00,
2013-09-09 21:09:00,66.0,53.9,32.81,North,0,0.0,0.0,65,0.00,,,-99.99,pyweather 0.1,2013-09-10 04:09:00,
2013-09-09 21:17:00,65.7,54.0,32.81,North,0,0.0,0.0,66,0.00,,,-99.99,pyweather 0.1,2013-09-10 04:17:00,
2013-09-09 21:25:00,65.5,54.2,32.81,North,0,0.0,0.0,67,0.00,,,-99.99,pyweather 0.1,2013-09-10 04:25:00,
2013-09-09 21:33:00,65.1,53.9,32.81,North,0,0.0,0.0,67,0.00,,,-99.99,pyweather 0.1,2013-09-10 04:33:00,
2013-09-09 21:41:00,64.9,54.1,32.81,North,0,0.0,0.0,68,0.00,,,-99.99,pyweather 0.1,2013-09-10 04:41:00,
2013-09-09 21:49:00,64.8,54.0,32.81,North,0,0.0,0.0,68,0.00,,,-99.99,pyweather 0.1,2013-09-10 04:49:00,
2013-09-09 21:57:00,64.6,54.2,32.81,North,0,0.0,0.0,69,0.00,,,-99.99,pyweather 0.1,2013-09-10 04:57:00,
2013-09-09 22:05:00,64.4,54.0,32.81,North,0,0.0,0.0,69,0.00,,,-99.99,pyweather 0.1,2013-09-10 05:05:00,
2013-09-09 22:13:00,64.2,54.2,32.81,North,0,0.0,0.0,70,0.00,,,-99.99,pyweather 0.1,2013-09-10 05:13:00,
2013-09-09 22:21:00,64.2,54.2,32.81,North,0,0.0,0.0,70,0.00,,,-99.99,pyweather 0.1,2013-09-10 05:21:00,
2013-09-09 22:29:00,63.9,53.9,32.81,North,0,0.0,0.0,70,0.00,,,-99.99,pyweather 0.1,2013-09-10 05:29:00,
2013-09-09 22:37:00,63.7,54.1,32.81,North,0,0.0,0.0,71,0.00,,,-99.99,pyweather 0.1,2013-09-10 05:37:00,
2013-09-09 22:45:00,63.5,53.9,32.81,North,0,0.0,0.0,71,0.00,,,-99.99,pyweather 0.1,2013-09-10 05:45:00,
2013-09-09 22:53:00,63.5,54.3,32.81,North,0,0.0,0.0,72,0.00,,,-99.99,pyweather 0.1,2013-09-10 05:53:00,
2013-09-09 23:01:00,63.3,54.2,32.81,North,0,0.0,0.0,72,0.00,,,-99.99,pyweather 0.1,2013-09-10 06:01:00,
2013-09-09 23:09:00,63.1,54.3,32.81,North,0,0.0,0.0,73,0.00,,,-99.99,pyweather 0.1,2013-09-10 06:09:00,
2013-09-09 23:17:00,63.3,54.9,32.81,North,0,0.0,0.0,74,0.00,,,-99.99,pyweather 0.1,2013-09-10 06:17:00,
2013-09-09 23:25:00,63.5,55.1,32.81,North,0,0.0,0.0,74,0.00,,,-99.99,pyweather 0.1,2013-09-10 06:25:00,
2013-09-09 23:33:00,63.5,55.1,32.81,North,0,0.0,0.0,74,0.00,,,-99.99,pyweather 0.1,2013-09-10 06:33:00,
2013-09-09 23:41:00,63.5,55.1,32.81,North,0,0.0,0.0,74,0.00,,,-99.99,pyweather 0.1,2013-09-10 06:41:00,
2013-09-09 23:49:00,63.5,55.1,32.81,North,0,0.0,0.0,74,0.00,,,-99.99,pyweather 0.1,2013-09-10 06:49:00,
2013-09-09 23:57:00,63.3,54.5,32.81,North,0,0.0,0.0,73,0.00,,,-99.99,pyweather 0.1,2013-09-10 06:57:00,